This demonstration page uses our WeatherBlox Daily Observations layout. Learn more.

Left ArrowRight Arrow

Hourly Observations for November 1, 2022

Temp ( °F °C ) Dew Point ( °F °C ) Humidity (%) Winds ( mph kmh ) Pressure ( in mb ) Visibility ( mi km ) Precip ( " mm )
12:53 am 00:53 Clear 55 12.8 47 8.3 74 74 ESE 8 13 29.97 1015 10 16 0.00 0.00
1:53 am 01:53 Clear 55 12.8 49 9.4 80 80 ESE 8 13 29.97 1015 10 16 0.00 0.00
2:53 am 02:53 Clear 54 12.2 49 9.4 83 83 ESE 9 15 29.98 1015 10 16 0.00 0.00
3:53 am 03:53 Clear 55 12.8 51 10.6 86 86 ESE 9 15 29.97 1015 10 16 0.00 0.00
4:53 am 04:53 Clear 54 12.2 51 10.6 90 90 ESE 10 17 29.96 1015 10 16 0.00 0.00
5:53 am 05:53 Clear 52 11.1 51 10.6 97 97 SE 9 15 29.98 1015 10 16 0.00 0.00
6:53 am 06:53 Clear with Mist and Fog 52 11.1 50 10 93 93 SE 7 11 30.01 1016 6 10 0.00 0.00
7:53 am 07:53 Clear with Mist and Fog 52 11.1 51 10.6 97 97 SE 7 11 30.04 1017 5 8 0.00 0.00
8:24 am 08:24 Sunny with Mist and Fog 52 11.1 51 10.6 97 97 SE 8 13 30.09 1019 3 4 0.00 0.00
8:53 am 08:53 Mostly Cloudy with Mist and Fog 53 11.7 52 11.1 96 96 SE 6 9 30.06 1018 2 3 0.00 0.00
9:03 am 09:03 Cloudy with Mist and Fog 53 11.7 53 11.7 100 100 SE 6 9 30.10 1019 3 4 0.00 0.00
9:14 am 09:14 Cloudy with Mist and Fog 54 12.2 53 11.7 97 97 SSE 8 13 30.10 1019 3 5 0.00 0.00
9:21 am 09:21 Cloudy with Mist and Fog 54 12.2 53 11.7 97 97 SSE 8 13 30.10 1019 3 5 0.00 0.00
9:37 am 09:37 Cloudy with Fog 54 12.2 53 11.7 97 97 SSE 7 11 30.10 1019 0 0 0.00 0.00
9:53 am 09:53 Partly Cloudy with Fog 54 12.2 54 12.2 100 100 SE 7 11 30.07 1018 0 0 0.00 0.00
10:01 am 10:01 Partly Cloudy with Fog 54 12.2 54 12.2 100 100 SSE 8 13 30.11 1020 1 1 0.00 0.00
10:15 am 10:15 Cloudy with Mist and Fog 55 12.8 54 12.2 96 96 SSE 7 11 30.10 1019 2 3 0.00 0.00
10:22 am 10:22 Cloudy with Mist and Fog 56 13.3 55 12.8 97 97 SSE 9 15 30.10 1019 3 5 0.00 0.00
10:53 am 10:53 Mostly Cloudy 59 15 54 12.2 83 83 SSE 10 17 30.08 1019 10 16 0.00 0.00
11:12 am 11:12 Partly Cloudy 61 16.1 54 12.2 78 78 S 10 17 30.08 1019 10 16 0.00 0.00
11:53 am 11:53 Sunny 64 17.8 53 11.7 67 67 SE 9 15 30.07 1018 10 16 0.00 0.00
12:53 pm 12:53 Sunny 67 19.4 51 10.6 57 57 SSE 6 9 30.05 1018 10 16 0.01 0.13
1:53 pm 13:53 Sunny with Light Rain 72 22.2 45 7.2 38 38 S 7 11 30.01 1016 10 16 0.01 0.13
2:53 pm 14:53 Sunny 74 23.3 42 5.6 32 32 S 6 9 29.98 1015 10 16 0.01 0.13
3:53 pm 15:53 Sunny 75 23.9 37 2.8 25 25 Calm 29.96 1015 10 16 0.00 0.00
4:53 pm 16:53 Sunny 76 24.4 35 1.7 23 23 SE 7 11 29.96 1014 10 16 0.00 0.00
5:53 pm 17:53 Sunny 75 23.9 34 1.1 22 22 S 7 11 29.96 1014 10 16 0.00 0.00
6:53 pm 18:53 Sunny 70 21.1 41 5 35 35 SE 9 15 29.97 1015 10 16 0.00 0.00
7:53 pm 19:53 Clear 67 19.4 48 8.9 51 51 SE 14 22 29.99 1016 10 16 0.00 0.00
8:53 pm 20:53 Clear 64 17.8 49 9.4 58 58 SE 15 24 30.01 1016 10 16 0.00 0.00
9:53 pm 21:53 Clear 62 16.7 51 10.6 67 67 SE 12 19 30.03 1017 10 16 0.00 0.00
10:53 pm 22:53 Clear 60 15.6 52 11.1 75 75 SE 12 19 30.03 1017 10 16 0.00 0.00
11:53 pm 23:53 Clear 59 15 53 11.7 81 81 SE 13 20 30.03 1017 10 16 0.00 0.00

Powered by AerisWeather